Monroe, WI

1:47 AM CDT on April 22, 2018 (GMT -0500)
Monroe Municipal

Weather History for KEFT - December, 2013

Change the Weather History Date:

Saturday, December 28, 2013

  Actual Average Record
Temperature  
Mean Temperature 33 °F -  
Max Temperature 40 °F 0 °F 50 °F (2003)
Min Temperature 26 °F - -2 °F (2017)
Degree Days  
Heating Degree Days 32    
Moisture  
Dew Point 31 °F    
Average Humidity 89    
Maximum Humidity 100    
Minimum Humidity 72    
Precipitation  
Precipitation 0.00 in - - ()
Sea Level Pressure  
Sea Level Pressure 29.90 in    
Wind  
Wind Speed 14 mph (SSW)    
Max Wind Speed 22 mph    
Max Gust Speed 24 mph    
Visibility 10 miles    
Events      
Averages and records for this station are not official NWS values.
T = Trace of Precipitation, MM = Missing Value Source: NWS Daily Summary

Daily Weather History Graph

Daily Weather History Graph

Search for Another Location

Airport or City:

Astronomy

Dec. 28, 2013 Rise Set
Actual Time 7:27 AM CST 4:32 PM CST
Civil Twilight 6:55 AM CST 5:04 PM CST
Nautical Twilight 6:20 AM CST 5:40 PM CST
Astronomical Twilight 5:45 AM CST 6:14 PM CST
Moon 3:01 AM CST (12/28) 1:26 PM CST (12/28)
Length of Visible Light 10h 08m
Length of Day
9h 04m
Waning Crescent, 19% of the Moon is Illuminated
Dec 28
Waning Crescent
Jan 1
New
Jan 7
First Quarter
Jan 15
Full
Jan 23
Last Quarter

Hourly Weather History & Observations

Time (CST) Temp. Windchill Dew Point Humidity Pressure Visibility Wind Dir Wind Speed Gust Speed Precip Events Conditions
12:15 AM 33.6 °F 22.9 °F 32.0 °F 94% 30.02 in 10.0 mi SW 17.3 mph - N/A   Clear
12:35 AM 32.9 °F 22.0 °F 31.8 °F 96% 30.01 in 10.0 mi SW 17.3 mph - N/A   Clear
12:55 AM 33.4 °F 23.1 °F 32.0 °F 94% 30.01 in 10.0 mi WSW 16.1 mph - N/A   Clear
1:15 AM 32.7 °F 24.5 °F 31.5 °F 95% 30.02 in 10.0 mi WSW 10.4 mph - N/A   Clear
1:35 AM 32.0 °F 23.0 °F 31.1 °F 96% 30.02 in 10.0 mi SW 11.5 mph - N/A   Clear
1:55 AM 31.5 °F 22.3 °F 31.1 °F 99% 30.03 in 10.0 mi SW 11.5 mph - N/A   Clear
2:15 AM 31.3 °F 22.1 °F 31.3 °F 100% 30.03 in 10.0 mi SW 11.5 mph - N/A   Clear
2:35 AM 30.7 °F 22.0 °F 30.7 °F 100% 30.03 in 10.0 mi SW 10.4 mph - N/A   Clear
2:55 AM 32.9 °F 22.4 °F 32.0 °F 96% 30.03 in 10.0 mi WSW 16.1 mph - N/A   Clear
3:15 AM 32.0 °F 23.0 °F 31.1 °F 96% 30.02 in 10.0 mi SSW 11.5 mph - N/A   Clear
3:35 AM 30.7 °F 22.6 °F 30.7 °F 100% 30.01 in 10.0 mi SW 9.2 mph - N/A   Clear
3:55 AM 29.5 °F 21.1 °F 29.5 °F 100% 30.01 in 10.0 mi SW 9.2 mph - N/A   Clear
4:15 AM 29.3 °F 22.3 °F 29.3 °F 100% 30.00 in 10.0 mi SW 6.9 mph - N/A   Clear
4:35 AM 29.1 °F 20.6 °F 29.1 °F 100% 30.00 in 10.0 mi SSW 9.2 mph - N/A   Clear
4:55 AM 28.9 °F 19.2 °F 28.9 °F 100% 30.00 in 10.0 mi SSW 11.5 mph - N/A   Clear
5:15 AM 27.9 °F 17.8 °F 27.9 °F 100% 30.00 in 10.0 mi SSW 11.5 mph - N/A   Clear
5:35 AM 27.9 °F 17.3 °F 27.9 °F 100% 29.99 in 10.0 mi SSW 12.7 mph - N/A   Clear
5:55 AM 28.0 °F 17.5 °F 28.0 °F 100% 30.00 in 10.0 mi SSW 12.7 mph - N/A   Clear
6:15 AM 27.5 °F 16.8 °F 27.5 °F 100% 30.00 in 10.0 mi SSW 12.7 mph - N/A   Clear
6:35 AM 27.3 °F 16.6 °F 27.3 °F 100% 30.00 in 10.0 mi SSW 12.7 mph - N/A   Clear
6:55 AM 27.3 °F 18.4 °F 27.3 °F 100% 30.00 in 10.0 mi SSW 9.2 mph - N/A   Clear
7:15 AM 26.4 °F 16.6 °F 26.4 °F 100% 30.00 in 7.0 mi SSW 10.4 mph - N/A   Clear
7:35 AM 27.9 °F 19.1 °F 27.9 °F 100% 29.99 in 7.0 mi SSW 9.2 mph - N/A   Clear
7:55 AM 28.8 °F 19.0 °F 28.8 °F 100% 29.99 in 7.0 mi SSW 11.5 mph - N/A   Clear
8:15 AM 29.1 °F 20.0 °F 29.1 °F 100% 29.98 in 7.0 mi South 10.4 mph - N/A   Clear
8:35 AM 29.1 °F 19.4 °F 29.1 °F 100% 29.97 in 5.0 mi South 11.5 mph - N/A   Clear
8:55 AM 29.7 °F 20.7 °F 29.7 °F 100% 29.97 in 5.0 mi South 10.4 mph - N/A   Clear
9:15 AM 30.6 °F 20.7 °F 30.6 °F 100% 29.97 in 7.0 mi SSW 12.7 mph - N/A   Clear
9:35 AM 32.0 °F 22.5 °F 32.0 °F 100% 29.97 in 7.0 mi SSW 12.7 mph - N/A   Clear
10:00 AM 33.4 °F 23.9 °F 33.4 °F 100% 29.96 in 10.0 mi SSW 13.8 mph 18.4 mph N/A   Clear
10:15 AM 33.8 °F 23.9 °F 33.8 °F 100% 29.95 in 10.0 mi SSW 15.0 mph - N/A   Clear
10:35 AM 34.7 °F 25.9 °F 34.7 °F 100% 29.95 in 10.0 mi SSW 12.7 mph - N/A   Clear
10:55 AM 36.0 °F 27.5 °F 34.7 °F 95% 29.94 in 10.0 mi SSW 12.7 mph 17.3 mph N/A   Clear
11:15 AM 37.0 °F 28.1 °F 34.7 °F 91% 29.93 in 10.0 mi SSW 15.0 mph 19.6 mph N/A   Clear
11:35 AM 37.8 °F 28.6 °F 34.0 °F 86% 29.91 in 10.0 mi SSW 16.1 mph - N/A   Clear
11:55 AM 38.3 °F 30.5 °F 33.8 °F 84% 29.90 in 10.0 mi SSW 12.7 mph - N/A   Clear
12:15 PM 38.8 °F 29.4 °F 32.7 °F 79% 29.89 in 10.0 mi SSW 18.4 mph - N/A   Clear
12:35 PM 39.6 °F 31.3 °F 32.0 °F 74% 29.87 in 10.0 mi SSW 15.0 mph 21.9 mph N/A   Clear
12:55 PM 40.1 °F 32.0 °F 32.0 °F 73% 29.87 in 10.0 mi SSW 15.0 mph - N/A   Clear
1:15 PM 40.3 °F 32.6 °F 31.8 °F 72% 29.86 in 10.0 mi SSW 13.8 mph - N/A   Clear
1:35 PM 40.1 °F 32.0 °F 31.8 °F 72% 29.86 in 10.0 mi SSW 15.0 mph - N/A   Clear
1:55 PM 39.7 °F 31.5 °F 31.8 °F 73% 29.86 in 10.0 mi SSW 15.0 mph 19.6 mph N/A   Clear
2:20 PM 39.2 °F 30.2 °F 32.0 °F 75% 29.85 in 10.0 mi SSW 17.3 mph 21.9 mph N/A   Clear
2:35 PM 39.2 °F 30.2 °F 31.8 °F 75% 29.85 in 10.0 mi SSW 17.3 mph - N/A   Clear
2:55 PM 39.2 °F 30.5 °F 32.0 °F 75% 29.85 in 10.0 mi SSW 16.1 mph - N/A   Clear
3:15 PM 39.2 °F 30.2 °F 32.0 °F 75% 29.85 in 10.0 mi SSW 17.3 mph 23.0 mph N/A   Clear
3:35 PM 38.8 °F 29.4 °F 32.0 °F 76% 29.84 in 10.0 mi SSW 18.4 mph - N/A   Clear
3:55 PM 38.3 °F 29.0 °F 32.0 °F 78% 29.83 in 10.0 mi SSW 17.3 mph - N/A   Clear
4:15 PM 37.8 °F 28.0 °F 32.0 °F 80% 29.83 in 10.0 mi SSW 18.4 mph - N/A   Clear
4:35 PM 37.4 °F 27.5 °F 32.9 °F 84% 29.83 in 10.0 mi SSW 18.4 mph - N/A   Clear
4:55 PM 37.2 °F 26.7 °F 34.7 °F 91% 29.82 in 10.0 mi SSW 20.7 mph - N/A   Clear
5:15 PM 36.5 °F 27.0 °F 34.9 °F 94% 29.82 in 10.0 mi SSW 16.1 mph 23.0 mph N/A   Clear
5:35 PM 36.5 °F 26.7 °F 35.1 °F 95% 29.82 in 10.0 mi SSW 17.3 mph 21.9 mph N/A   Clear
5:55 PM 36.5 °F 26.3 °F 35.1 °F 95% 29.81 in 10.0 mi SSW 18.4 mph 23.0 mph N/A   Clear
6:15 PM 36.5 °F 26.3 °F 34.9 °F 94% 29.80 in 10.0 mi SSW 18.4 mph - N/A   Clear
6:35 PM 36.5 °F 26.3 °F 34.9 °F 94% 29.80 in 10.0 mi SSW 18.4 mph - N/A   Clear
7:00 PM 36.5 °F 26.7 °F 34.9 °F 94% 29.80 in 10.0 mi SSW 17.3 mph - N/A   Clear
7:15 PM 36.9 °F 26.8 °F 34.9 °F 93% 29.80 in 10.0 mi SSW 18.4 mph 23.0 mph N/A   Clear
7:35 PM 37.2 °F 27.0 °F 33.6 °F 87% 29.79 in 10.0 mi SSW 19.6 mph - N/A   Clear
7:55 PM 37.2 °F 27.3 °F 32.5 °F 83% 29.79 in 10.0 mi SSW 18.4 mph 24.2 mph N/A   Clear
8:15 PM 37.6 °F 27.4 °F 31.6 °F 79% 29.78 in 10.0 mi SSW 19.6 mph - N/A   Clear
8:35 PM 37.4 °F 27.2 °F 31.1 °F 78% 29.79 in 10.0 mi SSW 19.6 mph - N/A   Clear
8:55 PM 37.8 °F 28.0 °F 30.9 °F 76% 29.79 in 10.0 mi SSW 18.4 mph - N/A   Clear
9:15 PM 37.6 °F 27.4 °F 30.7 °F 76% 29.79 in 10.0 mi SSW 19.6 mph - N/A   Clear
9:35 PM 37.6 °F 27.7 °F 30.6 °F 76% 29.78 in 10.0 mi SSW 18.4 mph - N/A   Clear
9:55 PM 37.4 °F 27.8 °F 30.4 °F 76% 29.77 in 10.0 mi SSW 17.3 mph - N/A   Clear
10:15 PM 37.0 °F 27.4 °F 30.2 °F 76% 29.78 in 10.0 mi SSW 17.3 mph - N/A   Clear
10:35 PM 36.9 °F 26.8 °F 30.2 °F 77% 29.77 in 10.0 mi SSW 18.4 mph - N/A   Clear
10:55 PM 36.9 °F 26.5 °F 29.8 °F 76% 29.77 in 10.0 mi SSW 19.6 mph - N/A   Clear
11:15 PM 37.4 °F 26.6 °F 29.7 °F 74% 29.76 in 10.0 mi SW 21.9 mph - N/A   Clear
11:35 PM 37.8 °F 28.0 °F 29.7 °F 73% 29.75 in 10.0 mi SW 18.4 mph - N/A   Clear
11:55 PM 37.9 °F 27.9 °F 29.7 °F 72% 29.73 in 10.0 mi SW 19.6 mph - N/A   Clear